SVJC/LSP METAR and TAF weather

Enter ICAO airport designator
Station Type Date Time Source
SVJC METAR 2020/10/02 10:00 UTC NOAA

SVJC 021000Z NI CHECK TEXT NEW ENDING ADDED KATLYTAA


Station Type Date Time Source
SVJC Decoded METAR 2020/10/02 10:00 UTC NOAA

Paraguana / Josefa, Venezuela (SVJC) 11-47N 070-09W
Oct 02, 2020 - 06:00 AM EDT / 2020.10.02 1000 UTC
ob: SVJC 021000Z NI CHECK TEXT NEW ENDING ADDED KATLYTAA
cycle: 10

Station Type Date Time Source
SVJC TAF 2022/01/26 12:03 UTC NOAA

TAF TAF SVJC 261000Z 2612/2712 07015KT 9999 FEW013 TX32/2619Z TN22/2608Z
BECMG 2416/2422 07007KT SCT013 SCT090
FM262300 08002KT 9999 FEW013

Example: see airport list